Regional Weather Roundup
Issued by NWS Burlington, VT

Current Version | Previous Version | Graphics & Text | Print | Product List | Glossary On
Versions: 1 2 3 4 5 6 7 8 9 10 11 12 13 14 15 16 17 18 19 20 21 22 23 24 25 26 27 28 29 30 31 32 33 34 35 36 37 38 39 40 41 42 43 44 45 46 47 48 49 50
000
ASUS41 KBTV 140710
RWRBTV
VERMONT REGIONAL WEATHER ROUNDUP
NATIONAL WEATHER SERVICE BURLINGTON VT
200 AM EST THU NOV 14 2019

NOTE: "FAIR" INDICATES FEW OR NO CLOUDS BELOW 12,000 FEET WITH NO
SIGNIFICANT WEATHER AND/OR OBSTRUCTIONS TO VISIBILITY.

* THESE REPORTS ARE NOT UNDER NWS QUALITY CONTROL AND/OR DO NOT
  REPORT WEATHER SUCH AS PRECIPITATION AND FOG.

VTZ001>019-140800-
_____VERMONT_____


CITY           SKY/WX    TMP DP  RH WIND       PRES   REMARKS
BURLINGTON     CLOUDY    17   8  67 SE6       30.40F WCI   9
MONTPELIER     CLOUDY     9   5  84 E3        30.40S
MORRISVILLE      N/A      7   3  84 CALM      30.40F
ST. JOHNSBURY*   N/A      6   3  87 MISG      30.41S
MIDDLEBURY*    CLOUDY    17   8  66 S3        30.39F
RUTLAND*       CLOUDY    15   9  76 SE7       30.39F WCI   5
SPRINGFIELD    CLOUDY    15  10  80 CALM      30.44S
HIGHGATE*        N/A     14   8  74 NW3       30.40F
NEWPORT*       CLOUDY     5   2  88 S5        30.38S WCI  -4
BENNINGTON     MOCLDY    18   8  65 SE3       30.38F

_____LAKE CHAMPLAIN_____


CITY           SKY/WX    TMP DP  RH WIND       PRES   REMARKS

$$

NYZ007-026>031-035-052-083-087-140800-
_____NORTHERN NEW YORK_____


CITY           SKY/WX    TMP DP  RH WIND       PRES   REMARKS
PLATTSBURGH    CLOUDY    13   9  84 CALM      30.39F
SARANAC LAKE   CLOUDY     9   4  80 CALM      30.25F
MASSENA        CLOUDY    15   8  73 CALM      30.37F
OGDENSBURG*    LGT SNOW  18  12  79 VRB6      30.32S WCI   9
POTSDAM*       CLOUDY    14  10  85 CALM      30.34F
WATERTOWN      CLOUDY    23   8  52 SE5       30.30F WCI  17
FT DRUM        CLOUDY    18   9  67 SE14      30.28F WCI   5
ALBANY         CLOUDY    21  11  65 CALM      30.44S
GLENS FALLS    CLOUDY    19  11  70 CALM      30.41F

$$
NHZ002-005-011-140800-
_____NEW HAMPSHIRE_____


CITY           SKY/WX    TMP DP  RH WIND       PRES   REMARKS
LEBANON        CLOUDY    15   9  76 CALM      30.43R
KEENE          FAIR      15  11  83 CALM      30.45R
MT WASHINGTON  MOCLDY     3 -22  30 NE9         N/A  WCI -11
PLYMOUTH       MOCLDY    13  10  87 CALM      30.44S
WHITEFIELD     MOCLDY     6   2  83 CALM      30.38S

$$

_____REGIONAL QUEBEC LOCATIONS_____


CITY           SKY/WX    TMP DP  RH WIND       PRES   REMARKS
MONTREAL       CLOUDY    18   9  68 SE5       30.40F WCI  11
QUEBEC CITY    CLOUDY     9   5  85 W6        30.43R WCI  -1
SHERBROOKE     CLEAR      1  -4  78 N2        30.39S

_____REGIONAL ONTARIO LOCATIONS_____


CITY           SKY/WX    TMP DP  RH WIND       PRES   REMARKS
OTTAWA         CLOUDY    14   9  79 E7        30.32S WCI   4

______KEY______
VSB  - VISIBILITY IN MILES
WCI  - WIND CHILL INDEX
HX   - HEAT INDEX
$$
NNNN



USA.gov is the U.S. government's official web portal to all federal, state and local government web resources and services.